Year,Month,Day,Hour,Minute,Value (Times are PST for temperature in C)
2010,02,20,00,00,2.60
2010,02,20,00,01,2.60
2010,02,20,00,02,2.60
2010,02,20,00,03,2.50
2010,02,20,00,04,2.50
2010,02,20,00,05,2.40
2010,02,20,00,06,2.20
2010,02,20,00,07,2.20
2010,02,20,00,08,2.20
2010,02,20,00,09,2.20
2010,02,20,00,10,2.20
2010,02,20,00,11,2.20
2010,02,20,00,12,2.20
2010,02,20,00,13,2.20
2010,02,20,00,14,2.20
2010,02,20,00,15,2.30
2010,02,20,00,16,2.30
2010,02,20,00,17,2.30
2010,02,20,00,18,2.30
2010,02,20,00,19,2.30
2010,02,20,00,20,2.30
2010,02,20,00,21,2.30
2010,02,20,00,22,2.30
2010,02,20,00,23,2.40
2010,02,20,00,24,2.50
2010,02,20,00,25,2.60
2010,02,20,00,26,2.70
2010,02,20,00,27,2.80
2010,02,20,00,28,2.80
2010,02,20,00,29,2.80
2010,02,20,00,30,2.80
2010,02,20,00,31,2.90
2010,02,20,00,32,2.90
2010,02,20,00,33,2.80
2010,02,20,00,34,2.80
2010,02,20,00,35,2.80
2010,02,20,00,36,2.70
2010,02,20,00,37,2.70
2010,02,20,00,38,2.70
2010,02,20,00,39,2.70
2010,02,20,00,40,2.70
2010,02,20,00,41,2.70
2010,02,20,00,42,2.70
2010,02,20,00,43,2.70
2010,02,20,00,44,2.70
2010,02,20,00,45,2.70
2010,02,20,00,46,2.70
2010,02,20,00,47,2.70
2010,02,20,00,48,2.70
2010,02,20,00,49,2.70
2010,02,20,00,50,2.70
2010,02,20,00,51,2.70
2010,02,20,00,52,2.80
2010,02,20,00,53,2.80
2010,02,20,00,54,2.80
2010,02,20,00,55,2.80
2010,02,20,00,56,2.80
2010,02,20,00,57,2.80
2010,02,20,00,58,2.90
2010,02,20,00,59,2.90
2010,02,20,01,00,2.90
2010,02,20,01,01,2.90
2010,02,20,01,02,2.90
2010,02,20,01,03,2.90
2010,02,20,01,04,2.90
2010,02,20,01,05,2.90
2010,02,20,01,06,2.80
2010,02,20,01,07,2.80
2010,02,20,01,08,2.80
2010,02,20,01,09,2.80
2010,02,20,01,10,2.70
2010,02,20,01,11,2.70
2010,02,20,01,12,2.70
2010,02,20,01,13,2.70
2010,02,20,01,14,2.70
2010,02,20,01,15,2.60
2010,02,20,01,16,2.60
2010,02,20,01,17,2.50
2010,02,20,01,18,2.50
2010,02,20,01,19,2.50
2010,02,20,01,20,2.40
2010,02,20,01,21,2.40
2010,02,20,01,22,2.40
2010,02,20,01,23,2.40
2010,02,20,01,24,2.30
2010,02,20,01,25,2.30
2010,02,20,01,26,2.30
2010,02,20,01,27,2.20
2010,02,20,01,28,2.20
2010,02,20,01,29,2.20
2010,02,20,01,30,2.20
2010,02,20,01,31,2.10
2010,02,20,01,32,2.10
2010,02,20,01,33,2.00
2010,02,20,01,34,2.00
2010,02,20,01,35,2.00
2010,02,20,01,36,1.90
2010,02,20,01,37,1.90
2010,02,20,01,38,1.90
2010,02,20,01,39,1.80
2010,02,20,01,40,1.80
2010,02,20,01,41,1.80
2010,02,20,01,42,1.80
2010,02,20,01,43,1.80
2010,02,20,01,44,1.80
2010,02,20,01,45,1.80
2010,02,20,01,46,1.80
2010,02,20,01,47,1.80
2010,02,20,01,48,1.80
2010,02,20,01,49,1.80
2010,02,20,01,50,1.70
2010,02,20,01,51,1.70
2010,02,20,01,52,1.70
2010,02,20,01,53,1.70
2010,02,20,01,54,1.70
2010,02,20,01,55,1.70
2010,02,20,01,56,1.60
2010,02,20,01,57,1.60
2010,02,20,01,58,1.60
2010,02,20,01,59,1.60
2010,02,20,02,00,1.60
2010,02,20,02,01,1.50
2010,02,20,02,02,1.50
2010,02,20,02,03,1.50
2010,02,20,02,04,1.50
2010,02,20,02,05,1.50
2010,02,20,02,06,1.50
2010,02,20,02,07,1.50
2010,02,20,02,08,1.50
2010,02,20,02,09,1.50
2010,02,20,02,10,1.50
2010,02,20,02,11,1.50
2010,02,20,02,12,1.40
2010,02,20,02,13,1.40
2010,02,20,02,14,1.30
2010,02,20,02,15,1.30
2010,02,20,02,16,1.30
2010,02,20,02,17,1.30
2010,02,20,02,18,1.30
2010,02,20,02,19,1.20
2010,02,20,02,20,1.20
2010,02,20,02,21,1.20
2010,02,20,02,22,1.10
2010,02,20,02,23,1.10
2010,02,20,02,24,1.10
2010,02,20,02,25,1.10
2010,02,20,02,26,1.00
2010,02,20,02,27,1.00
2010,02,20,02,28,1.00
2010,02,20,02,29,1.10
2010,02,20,02,30,1.10
2010,02,20,02,31,1.10
2010,02,20,02,32,1.10
2010,02,20,02,33,1.00
2010,02,20,02,34,1.00
2010,02,20,02,35,1.00
2010,02,20,02,36,1.00
2010,02,20,02,37,1.00
2010,02,20,02,38,1.00
2010,02,20,02,39,1.00
2010,02,20,02,40,1.00
2010,02,20,02,41,1.00
2010,02,20,02,42,1.00
2010,02,20,02,43,1.00
2010,02,20,02,44,1.10
2010,02,20,02,45,1.20
2010,02,20,02,46,1.20
2010,02,20,02,47,1.20
2010,02,20,02,48,1.20
2010,02,20,02,49,1.30
2010,02,20,02,50,1.20
2010,02,20,02,51,1.20
2010,02,20,02,52,1.20
2010,02,20,02,53,1.30
2010,02,20,02,54,1.30
2010,02,20,02,55,1.30
2010,02,20,02,56,1.30
2010,02,20,02,57,1.30
2010,02,20,02,58,1.30
2010,02,20,02,59,1.30
2010,02,20,03,00,1.30
2010,02,20,03,01,1.30
2010,02,20,03,02,1.30
2010,02,20,03,03,1.30
2010,02,20,03,04,1.30
2010,02,20,03,05,1.30
2010,02,20,03,06,1.30
2010,02,20,03,07,1.30
2010,02,20,03,08,1.30
2010,02,20,03,09,1.30
2010,02,20,03,10,1.20
2010,02,20,03,11,1.20
2010,02,20,03,12,1.20
2010,02,20,03,13,1.20
2010,02,20,03,14,1.10
2010,02,20,03,15,1.10
2010,02,20,03,16,1.10
2010,02,20,03,17,1.00
2010,02,20,03,18,1.00
2010,02,20,03,19,1.00
2010,02,20,03,20,1.00
2010,02,20,03,21,0.90
2010,02,20,03,22,0.90
2010,02,20,03,23,0.90
2010,02,20,03,24,0.80
2010,02,20,03,25,0.80
2010,02,20,03,26,0.80
2010,02,20,03,27,0.80
2010,02,20,03,28,0.80
2010,02,20,03,29,0.80
2010,02,20,03,30,0.90
2010,02,20,03,31,0.90
2010,02,20,03,32,0.90
2010,02,20,03,33,0.90
2010,02,20,03,34,0.90
2010,02,20,03,35,1.00
2010,02,20,03,36,1.00
2010,02,20,03,37,1.00
2010,02,20,03,38,1.00
2010,02,20,03,39,0.90
2010,02,20,03,40,1.00
2010,02,20,03,41,1.00
2010,02,20,03,42,1.00
2010,02,20,03,43,1.10
2010,02,20,03,44,1.10
2010,02,20,03,45,1.10
2010,02,20,03,46,1.20
2010,02,20,03,47,1.20
2010,02,20,03,48,1.20
2010,02,20,03,49,1.20
2010,02,20,03,50,1.20
2010,02,20,03,51,1.20
2010,02,20,03,52,1.20
2010,02,20,03,53,1.20
2010,02,20,03,54,1.20
2010,02,20,03,55,1.30
2010,02,20,03,56,1.30
2010,02,20,03,57,1.30
2010,02,20,03,58,1.30
2010,02,20,03,59,1.30
2010,02,20,04,00,1.30
2010,02,20,04,01,1.30
2010,02,20,04,02,1.30
2010,02,20,04,03,1.30
2010,02,20,04,04,1.30
2010,02,20,04,05,1.30
2010,02,20,04,06,1.30
2010,02,20,04,07,1.40
2010,02,20,04,08,1.50
2010,02,20,04,09,1.50
2010,02,20,04,10,1.50
2010,02,20,04,11,1.50
2010,02,20,04,12,1.50
2010,02,20,04,13,1.50
2010,02,20,04,14,1.60
2010,02,20,04,15,1.60
2010,02,20,04,16,1.70
2010,02,20,04,17,1.80
2010,02,20,04,18,2.00
2010,02,20,04,19,2.10
2010,02,20,04,20,2.20
2010,02,20,04,21,2.30
2010,02,20,04,22,2.40
2010,02,20,04,23,2.50
2010,02,20,04,24,2.50
2010,02,20,04,25,2.60
2010,02,20,04,26,2.60
2010,02,20,04,27,2.50
2010,02,20,04,28,2.50
2010,02,20,04,29,2.40
2010,02,20,04,30,2.30
2010,02,20,04,31,2.20
2010,02,20,04,32,2.10
2010,02,20,04,33,2.00
2010,02,20,04,34,1.90
2010,02,20,04,35,1.80
2010,02,20,04,36,1.70
2010,02,20,04,37,1.60
2010,02,20,04,38,1.60
2010,02,20,04,39,1.50
2010,02,20,04,40,1.50
2010,02,20,04,41,1.40
2010,02,20,04,42,1.40
2010,02,20,04,43,1.40
2010,02,20,04,44,1.30
2010,02,20,04,45,1.30
2010,02,20,04,46,1.30
2010,02,20,04,47,1.30
2010,02,20,04,48,1.20
2010,02,20,04,49,1.20
2010,02,20,04,50,1.20
2010,02,20,04,51,1.20
2010,02,20,04,52,1.30
2010,02,20,04,53,1.30
2010,02,20,04,54,1.30
2010,02,20,04,55,1.40
2010,02,20,04,56,1.50
2010,02,20,04,57,1.50
2010,02,20,04,58,1.50
2010,02,20,04,59,1.50
2010,02,20,05,00,1.50
2010,02,20,05,01,1.60
2010,02,20,05,02,1.60
2010,02,20,05,03,1.50
2010,02,20,05,04,1.50
2010,02,20,05,05,1.50
2010,02,20,05,06,1.50
2010,02,20,05,07,1.50
2010,02,20,05,08,1.50
2010,02,20,05,09,1.50
2010,02,20,05,10,1.50
2010,02,20,05,11,1.50
2010,02,20,05,12,1.50
2010,02,20,05,13,1.50
2010,02,20,05,14,1.50
2010,02,20,05,15,1.40
2010,02,20,05,16,1.40
2010,02,20,05,17,1.40
2010,02,20,05,18,1.40
2010,02,20,05,19,1.30
2010,02,20,05,20,1.30
2010,02,20,05,21,1.30
2010,02,20,05,22,1.30
2010,02,20,05,23,1.30
2010,02,20,05,24,1.20
2010,02,20,05,25,1.20
2010,02,20,05,26,1.10
2010,02,20,05,27,1.00
2010,02,20,05,28,1.00
2010,02,20,05,29,0.90
2010,02,20,05,30,0.90
2010,02,20,05,31,1.00
2010,02,20,05,32,1.00
2010,02,20,05,33,1.00
2010,02,20,05,34,1.00
2010,02,20,05,35,1.00
2010,02,20,05,36,1.00
2010,02,20,05,37,1.00
2010,02,20,05,38,1.00
2010,02,20,05,39,1.00
2010,02,20,05,40,1.00
2010,02,20,05,41,1.00
2010,02,20,05,42,1.00
2010,02,20,05,43,1.00
2010,02,20,05,44,0.90
2010,02,20,05,45,0.90
2010,02,20,05,46,0.90
2010,02,20,05,47,0.80
2010,02,20,05,48,0.80
2010,02,20,05,49,0.80
2010,02,20,05,50,0.80
2010,02,20,05,51,0.80
2010,02,20,05,52,0.80
2010,02,20,05,53,0.80
2010,02,20,05,54,0.80
2010,02,20,05,55,0.80
2010,02,20,05,56,0.80
2010,02,20,05,57,0.80
2010,02,20,05,58,0.80
2010,02,20,05,59,0.70
2010,02,20,06,00,0.70
2010,02,20,06,01,0.70
2010,02,20,06,02,0.60
2010,02,20,06,03,0.60
2010,02,20,06,04,0.60
2010,02,20,06,05,0.60
2010,02,20,06,06,0.60
2010,02,20,06,07,0.60
2010,02,20,06,08,0.60
2010,02,20,06,09,0.60
2010,02,20,06,10,0.60
2010,02,20,06,11,0.60
2010,02,20,06,12,0.60
2010,02,20,06,13,0.60
2010,02,20,06,14,0.70
2010,02,20,06,15,0.70
2010,02,20,06,16,0.60
2010,02,20,06,17,0.60
2010,02,20,06,18,0.60
2010,02,20,06,19,0.60
2010,02,20,06,20,0.60
2010,02,20,06,21,0.70
2010,02,20,06,22,0.80
2010,02,20,06,23,0.80
2010,02,20,06,24,0.80
2010,02,20,06,25,0.70
2010,02,20,06,26,0.70
2010,02,20,06,27,0.60
2010,02,20,06,28,0.50
2010,02,20,06,29,0.40
2010,02,20,06,30,0.30
2010,02,20,06,31,0.20
2010,02,20,06,32,0.10
2010,02,20,06,33,0.10
2010,02,20,06,34,0.10
2010,02,20,06,35,0.10
2010,02,20,06,36,0.10
2010,02,20,06,37,0.10
2010,02,20,06,38,0.10
2010,02,20,06,39,0.00
2010,02,20,06,40,0.00
2010,02,20,06,41,-0.10
2010,02,20,06,42,-0.10
2010,02,20,06,43,-0.10
2010,02,20,06,44,-0.10
2010,02,20,06,45,-0.10
2010,02,20,06,46,-0.10
2010,02,20,06,47,-0.10
2010,02,20,06,48,0.00
2010,02,20,06,49,0.10
2010,02,20,06,50,0.20
2010,02,20,06,51,0.20
2010,02,20,06,52,0.20
2010,02,20,06,53,0.30
2010,02,20,06,54,0.40
2010,02,20,06,55,0.50
2010,02,20,06,56,0.50
2010,02,20,06,57,0.60
2010,02,20,06,58,0.60
2010,02,20,06,59,0.60
2010,02,20,07,00,0.60
2010,02,20,07,01,0.60
2010,02,20,07,02,0.60
2010,02,20,07,03,0.60
2010,02,20,07,04,0.60
2010,02,20,07,05,0.60
2010,02,20,07,06,0.50
2010,02,20,07,07,0.50
2010,02,20,07,08,0.40
2010,02,20,07,09,0.40
2010,02,20,07,10,0.40
2010,02,20,07,11,0.40
2010,02,20,07,12,0.40
2010,02,20,07,13,0.40
2010,02,20,07,14,0.40
2010,02,20,07,15,0.40
2010,02,20,07,16,0.40
2010,02,20,07,17,0.40
2010,02,20,07,18,0.40
2010,02,20,07,19,0.40
2010,02,20,07,20,0.40
2010,02,20,07,21,0.40
2010,02,20,07,22,0.40
2010,02,20,07,23,0.40
2010,02,20,07,24,0.50
2010,02,20,07,25,0.50
2010,02,20,07,26,0.50
2010,02,20,07,27,0.60
2010,02,20,07,28,0.70
2010,02,20,07,29,0.80
2010,02,20,07,30,0.80
2010,02,20,07,31,0.80
2010,02,20,07,32,0.90
2010,02,20,07,33,0.90
2010,02,20,07,34,1.00
2010,02,20,07,35,1.00
2010,02,20,07,36,1.00
2010,02,20,07,37,1.10
2010,02,20,07,38,1.10
2010,02,20,07,39,1.10
2010,02,20,07,40,1.10
2010,02,20,07,41,1.10
2010,02,20,07,42,1.10
2010,02,20,07,43,1.10
2010,02,20,07,44,1.20
2010,02,20,07,45,1.20
2010,02,20,07,46,1.20
2010,02,20,07,47,1.20
2010,02,20,07,48,1.20
2010,02,20,07,49,1.20
2010,02,20,07,50,1.30
2010,02,20,07,51,1.30
2010,02,20,07,52,1.30
2010,02,20,07,53,1.30
2010,02,20,07,54,1.30
2010,02,20,07,55,1.30
2010,02,20,07,56,1.30
2010,02,20,07,57,1.30
2010,02,20,07,58,1.30
2010,02,20,07,59,1.40
2010,02,20,08,00,1.50
2010,02,20,08,01,1.60
2010,02,20,08,02,1.60
2010,02,20,08,03,1.70
2010,02,20,08,04,1.80
2010,02,20,08,05,2.00
2010,02,20,08,06,2.10
2010,02,20,08,07,2.30
2010,02,20,08,08,2.50
2010,02,20,08,09,2.70
2010,02,20,08,10,2.90
2010,02,20,08,11,3.10
2010,02,20,08,12,3.30
2010,02,20,08,13,3.50
2010,02,20,08,14,3.70
2010,02,20,08,15,3.90
2010,02,20,08,16,4.00
2010,02,20,08,17,4.20
2010,02,20,08,18,4.30
2010,02,20,08,19,4.50
2010,02,20,08,20,4.60
2010,02,20,08,21,4.80
2010,02,20,08,22,5.00
2010,02,20,08,23,5.10
2010,02,20,08,24,5.20
2010,02,20,08,25,5.30
2010,02,20,08,26,5.50
2010,02,20,08,27,5.60
2010,02,20,08,28,5.70
2010,02,20,08,29,5.80
2010,02,20,08,30,5.90
2010,02,20,08,31,6.10
2010,02,20,08,32,6.20
2010,02,20,08,33,6.30
2010,02,20,08,34,6.40
2010,02,20,08,35,6.40
2010,02,20,08,36,6.40
2010,02,20,08,37,6.40
2010,02,20,08,38,6.40
2010,02,20,08,39,6.50
2010,02,20,08,40,6.60
2010,02,20,08,41,6.60
2010,02,20,08,42,6.70
2010,02,20,08,43,6.70
2010,02,20,08,44,6.80
2010,02,20,08,45,6.80
2010,02,20,08,46,6.80
2010,02,20,08,47,6.90
2010,02,20,08,48,6.90
2010,02,20,08,49,7.00
2010,02,20,08,50,7.10
2010,02,20,08,51,7.10
2010,02,20,08,52,7.20
2010,02,20,08,53,7.30
2010,02,20,08,54,7.30
2010,02,20,08,55,7.40
2010,02,20,08,56,7.40
2010,02,20,08,57,7.50
2010,02,20,08,58,7.50
2010,02,20,08,59,7.60
2010,02,20,09,00,7.60
2010,02,20,09,01,7.60
2010,02,20,09,02,7.70
2010,02,20,09,03,7.70
2010,02,20,09,04,7.70
2010,02,20,09,05,7.70
2010,02,20,09,06,7.80
2010,02,20,09,07,7.80
2010,02,20,09,08,7.80
2010,02,20,09,09,7.80
2010,02,20,09,10,7.90
2010,02,20,09,11,7.90
2010,02,20,09,12,7.90
2010,02,20,09,13,8.00
2010,02,20,09,14,8.10
2010,02,20,09,15,8.10
2010,02,20,09,16,8.10
2010,02,20,09,17,8.20
2010,02,20,09,18,8.20
2010,02,20,09,19,8.20
2010,02,20,09,20,8.30
2010,02,20,09,21,8.30
2010,02,20,09,22,8.30
2010,02,20,09,23,8.40
2010,02,20,09,24,8.40
2010,02,20,09,25,8.50
2010,02,20,09,26,8.50
2010,02,20,09,27,8.50
2010,02,20,09,28,8.60
2010,02,20,09,29,8.60
2010,02,20,09,30,8.60
2010,02,20,09,31,8.70
2010,02,20,09,32,8.70
2010,02,20,09,33,8.70
2010,02,20,09,34,8.70
2010,02,20,09,35,8.70
2010,02,20,09,36,8.70
2010,02,20,09,37,8.70
2010,02,20,09,38,8.70
2010,02,20,09,39,8.70
2010,02,20,09,40,8.70
2010,02,20,09,41,8.80
2010,02,20,09,42,8.80
2010,02,20,09,43,8.80
2010,02,20,09,44,8.80
2010,02,20,09,45,8.80
2010,02,20,09,46,8.80
2010,02,20,09,47,8.80
2010,02,20,09,48,8.80
2010,02,20,09,49,8.80
2010,02,20,09,50,8.80
2010,02,20,09,51,8.80
2010,02,20,09,52,8.80
2010,02,20,09,53,8.80
2010,02,20,09,54,8.80
2010,02,20,09,55,8.80
2010,02,20,09,56,8.90
2010,02,20,09,57,8.90
2010,02,20,09,58,9.00
2010,02,20,09,59,9.00
2010,02,20,10,00,9.10
2010,02,20,10,01,9.20
2010,02,20,10,02,9.30
2010,02,20,10,03,9.40
2010,02,20,10,04,9.40
2010,02,20,10,05,9.50
2010,02,20,10,06,9.60
2010,02,20,10,07,9.60
2010,02,20,10,08,9.60
2010,02,20,10,09,9.50
2010,02,20,10,10,9.50
2010,02,20,10,11,9.50
2010,02,20,10,12,9.50
2010,02,20,10,13,9.50
2010,02,20,10,14,9.40
2010,02,20,10,15,9.40
2010,02,20,10,16,9.40
2010,02,20,10,17,9.40
2010,02,20,10,18,9.40
2010,02,20,10,19,9.40
2010,02,20,10,20,9.40
2010,02,20,10,21,9.40
2010,02,20,10,22,9.40
2010,02,20,10,23,9.40
2010,02,20,10,24,9.40
2010,02,20,10,25,9.50
2010,02,20,10,26,9.50
2010,02,20,10,27,9.60
2010,02,20,10,28,9.60
2010,02,20,10,29,9.60
2010,02,20,10,30,9.60
2010,02,20,10,31,9.70
2010,02,20,10,32,9.70
2010,02,20,10,33,9.70
2010,02,20,10,34,9.70
2010,02,20,10,35,9.70
2010,02,20,10,36,9.70
2010,02,20,10,37,9.70
2010,02,20,10,38,9.70
2010,02,20,10,39,9.70
2010,02,20,10,40,9.70
2010,02,20,10,41,9.70
2010,02,20,10,42,9.70
2010,02,20,10,43,9.70
2010,02,20,10,44,9.70
2010,02,20,10,45,9.70
2010,02,20,10,46,9.70
2010,02,20,10,47,9.70
2010,02,20,10,48,9.80
2010,02,20,10,49,9.80
2010,02,20,10,50,9.80
2010,02,20,10,51,9.80
2010,02,20,10,52,9.90
2010,02,20,10,53,9.90
2010,02,20,10,54,9.90
2010,02,20,10,55,9.90
2010,02,20,10,56,10.00
2010,02,20,10,57,10.10
2010,02,20,10,58,10.10
2010,02,20,10,59,10.10
2010,02,20,11,00,10.10
2010,02,20,11,01,10.10
2010,02,20,11,02,10.10
2010,02,20,11,03,10.20
2010,02,20,11,04,10.30
2010,02,20,11,05,10.40
2010,02,20,11,06,10.50
2010,02,20,11,07,10.60
2010,02,20,11,08,10.70
2010,02,20,11,09,10.80
2010,02,20,11,10,10.80
2010,02,20,11,11,11.00
2010,02,20,11,12,11.20
2010,02,20,11,13,11.30
2010,02,20,11,14,11.30
2010,02,20,11,15,11.40
2010,02,20,11,16,11.40
2010,02,20,11,17,11.30
2010,02,20,11,18,11.30
2010,02,20,11,19,11.20
2010,02,20,11,20,11.10
2010,02,20,11,21,11.00
2010,02,20,11,22,10.90
2010,02,20,11,23,10.70
2010,02,20,11,24,10.60
2010,02,20,11,25,10.60
2010,02,20,11,26,10.60
2010,02,20,11,27,10.60
2010,02,20,11,28,10.60
2010,02,20,11,29,10.60
2010,02,20,11,30,10.40
2010,02,20,11,31,10.40
2010,02,20,11,32,10.40
2010,02,20,11,33,10.40
2010,02,20,11,34,10.40
2010,02,20,11,35,10.40
2010,02,20,11,36,10.40
2010,02,20,11,37,10.40
2010,02,20,11,38,10.40
2010,02,20,11,39,10.40
2010,02,20,11,40,10.50
2010,02,20,11,41,10.60
2010,02,20,11,42,10.60
2010,02,20,11,43,10.60
2010,02,20,11,44,10.70
2010,02,20,11,45,10.70
2010,02,20,11,46,10.70
2010,02,20,11,47,10.60
2010,02,20,11,48,10.50
2010,02,20,11,49,10.40
2010,02,20,11,50,10.40
2010,02,20,11,51,10.30
2010,02,20,11,52,10.30
2010,02,20,11,53,10.30
2010,02,20,11,54,10.20
2010,02,20,11,55,10.10
2010,02,20,11,56,10.20
2010,02,20,11,57,10.20
2010,02,20,11,58,10.30
2010,02,20,11,59,10.40
2010,02,20,12,00,10.50
2010,02,20,12,01,10.60
2010,02,20,12,02,10.60
2010,02,20,12,03,10.40
2010,02,20,12,04,10.40
2010,02,20,12,05,10.30
2010,02,20,12,06,10.30
2010,02,20,12,07,10.30
2010,02,20,12,08,10.20
2010,02,20,12,09,10.20
2010,02,20,12,10,10.20
2010,02,20,12,11,10.20
2010,02,20,12,12,10.30
2010,02,20,12,13,10.30
2010,02,20,12,14,10.30
2010,02,20,12,15,10.30
2010,02,20,12,16,10.40
2010,02,20,12,17,10.50
2010,02,20,12,18,10.60
2010,02,20,12,19,10.60
2010,02,20,12,20,10.60
2010,02,20,12,21,10.60
2010,02,20,12,22,10.60
2010,02,20,12,23,10.60
2010,02,20,12,24,10.70
2010,02,20,12,25,10.70
2010,02,20,12,26,10.60
2010,02,20,12,27,10.50
2010,02,20,12,28,10.40
2010,02,20,12,29,10.50
2010,02,20,12,30,10.40
2010,02,20,12,31,10.40
2010,02,20,12,32,10.40
2010,02,20,12,33,10.40
2010,02,20,12,34,10.40
2010,02,20,12,35,10.20
2010,02,20,12,36,10.20
2010,02,20,12,37,10.10
2010,02,20,12,38,10.10
2010,02,20,12,39,10.10
2010,02,20,12,40,10.10
2010,02,20,12,41,10.10
2010,02,20,12,42,10.10
2010,02,20,12,43,10.10
2010,02,20,12,44,10.10
2010,02,20,12,45,10.20
2010,02,20,12,46,10.20
2010,02,20,12,47,10.30
2010,02,20,12,48,10.30
2010,02,20,12,49,10.30
2010,02,20,12,50,10.40
2010,02,20,12,51,10.60
2010,02,20,12,52,10.60
2010,02,20,12,53,10.60
2010,02,20,12,54,10.50
2010,02,20,12,55,10.40
2010,02,20,12,56,10.50
2010,02,20,12,57,10.60
2010,02,20,12,58,10.60
2010,02,20,12,59,10.80
2010,02,20,13,00,10.80
2010,02,20,13,01,10.80
2010,02,20,13,02,10.80
2010,02,20,13,03,10.90
2010,02,20,13,04,10.90
2010,02,20,13,05,10.90
2010,02,20,13,06,10.90
2010,02,20,13,07,10.80
2010,02,20,13,08,10.70
2010,02,20,13,09,10.70
2010,02,20,13,10,10.70
2010,02,20,13,11,10.80
2010,02,20,13,12,10.80
2010,02,20,13,13,10.90
2010,02,20,13,14,11.00
2010,02,20,13,15,11.20
2010,02,20,13,16,11.20
2010,02,20,13,17,11.30
2010,02,20,13,18,11.10
2010,02,20,13,19,10.90
2010,02,20,13,20,10.70
2010,02,20,13,21,10.60
2010,02,20,13,22,10.50
2010,02,20,13,23,10.40
2010,02,20,13,24,10.40
2010,02,20,13,25,10.40
2010,02,20,13,26,10.30
2010,02,20,13,27,10.30
2010,02,20,13,28,10.30
2010,02,20,13,29,10.30
2010,02,20,13,30,10.30
2010,02,20,13,31,10.30
2010,02,20,13,32,10.30
2010,02,20,13,33,10.40
2010,02,20,13,34,10.50
2010,02,20,13,35,10.60
2010,02,20,13,36,10.80
2010,02,20,13,37,10.90
2010,02,20,13,38,10.90
2010,02,20,13,39,10.90
2010,02,20,13,40,10.90
2010,02,20,13,41,10.90
2010,02,20,13,42,10.90
2010,02,20,13,43,10.90
2010,02,20,13,44,10.80
2010,02,20,13,45,10.70
2010,02,20,13,46,10.70
2010,02,20,13,47,10.70
2010,02,20,13,48,10.70
2010,02,20,13,49,10.80
2010,02,20,13,50,10.90
2010,02,20,13,51,11.00
2010,02,20,13,52,11.10
2010,02,20,13,53,11.10
2010,02,20,13,54,11.10
2010,02,20,13,55,11.10
2010,02,20,13,56,11.10
2010,02,20,13,57,11.10
2010,02,20,13,58,11.20
2010,02,20,13,59,11.20
2010,02,20,14,00,11.20
2010,02,20,14,01,11.10
2010,02,20,14,02,11.20
2010,02,20,14,03,11.30
2010,02,20,14,04,11.40
2010,02,20,14,05,11.60
2010,02,20,14,06,11.60
2010,02,20,14,07,11.60
2010,02,20,14,08,11.60
2010,02,20,14,09,11.60
2010,02,20,14,10,11.60
2010,02,20,14,11,11.70
2010,02,20,14,12,11.70
2010,02,20,14,13,11.70
2010,02,20,14,14,11.60
2010,02,20,14,15,11.50
2010,02,20,14,16,11.30
2010,02,20,14,17,11.20
2010,02,20,14,18,11.10
2010,02,20,14,19,11.10
2010,02,20,14,20,10.90
2010,02,20,14,21,10.90
2010,02,20,14,22,10.90
2010,02,20,14,23,10.90
2010,02,20,14,24,11.00
2010,02,20,14,25,11.10
2010,02,20,14,26,11.10
2010,02,20,14,27,11.10
2010,02,20,14,28,11.20
2010,02,20,14,29,11.20
2010,02,20,14,30,11.20
2010,02,20,14,31,11.20
2010,02,20,14,32,11.30
2010,02,20,14,33,11.30
2010,02,20,14,34,11.40
2010,02,20,14,35,11.40
2010,02,20,14,36,11.40
2010,02,20,14,37,11.40
2010,02,20,14,38,11.40
2010,02,20,14,39,11.30
2010,02,20,14,40,11.20
2010,02,20,14,41,11.20
2010,02,20,14,42,11.20
2010,02,20,14,43,11.20
2010,02,20,14,44,11.30
2010,02,20,14,45,11.30
2010,02,20,14,46,11.40
2010,02,20,14,47,11.40
2010,02,20,14,48,11.60
2010,02,20,14,49,11.70
2010,02,20,14,50,11.80
2010,02,20,14,51,11.80
2010,02,20,14,52,11.90
2010,02,20,14,53,12.00
2010,02,20,14,54,12.10
2010,02,20,14,55,12.10
2010,02,20,14,56,12.20
2010,02,20,14,57,12.30
2010,02,20,14,58,12.20
2010,02,20,14,59,12.20
2010,02,20,15,00,12.20
2010,02,20,15,01,12.20
2010,02,20,15,02,12.20
2010,02,20,15,03,12.20
2010,02,20,15,04,12.10
2010,02,20,15,05,12.10
2010,02,20,15,06,12.10
2010,02,20,15,07,12.10
2010,02,20,15,08,12.20
2010,02,20,15,09,12.40
2010,02,20,15,10,12.50
2010,02,20,15,11,12.60
2010,02,20,15,12,12.70
2010,02,20,15,13,12.70
2010,02,20,15,14,12.80
2010,02,20,15,15,12.80
2010,02,20,15,16,12.90
2010,02,20,15,17,13.00
2010,02,20,15,18,13.00
2010,02,20,15,19,13.00
2010,02,20,15,20,13.00
2010,02,20,15,21,13.00
2010,02,20,15,22,12.90
2010,02,20,15,23,12.80
2010,02,20,15,24,12.80
2010,02,20,15,25,12.80
2010,02,20,15,26,12.80
2010,02,20,15,27,12.80
2010,02,20,15,28,12.80
2010,02,20,15,29,12.80
2010,02,20,15,30,12.80
2010,02,20,15,31,12.80
2010,02,20,15,32,12.90
2010,02,20,15,33,12.90
2010,02,20,15,34,13.00
2010,02,20,15,35,13.00
2010,02,20,15,36,13.10
2010,02,20,15,37,13.20
2010,02,20,15,38,13.20
2010,02,20,15,39,13.20
2010,02,20,15,40,13.20
2010,02,20,15,41,13.20
2010,02,20,15,42,13.30
2010,02,20,15,43,13.30
2010,02,20,15,44,13.30
2010,02,20,15,45,13.20
2010,02,20,15,46,13.10
2010,02,20,15,47,12.90
2010,02,20,15,48,12.80
2010,02,20,15,49,12.80
2010,02,20,15,50,12.80
2010,02,20,15,51,12.80
2010,02,20,15,52,12.80
2010,02,20,15,53,12.80
2010,02,20,15,54,12.80
2010,02,20,15,55,12.80
2010,02,20,15,56,12.80
2010,02,20,15,57,12.80
2010,02,20,15,58,12.80
2010,02,20,15,59,12.90
2010,02,20,16,00,12.90
2010,02,20,16,01,12.80
2010,02,20,16,02,12.80
2010,02,20,16,03,12.80
2010,02,20,16,04,12.80
2010,02,20,16,05,12.70
2010,02,20,16,06,12.60
2010,02,20,16,07,12.60
2010,02,20,16,08,12.50
2010,02,20,16,09,12.50
2010,02,20,16,10,12.50
2010,02,20,16,11,12.50
2010,02,20,16,12,12.50
2010,02,20,16,13,12.40
2010,02,20,16,14,12.30
2010,02,20,16,15,12.30
2010,02,20,16,16,12.20
2010,02,20,16,17,12.10
2010,02,20,16,18,12.00
2010,02,20,16,19,12.00
2010,02,20,16,20,12.00
2010,02,20,16,21,12.00
2010,02,20,16,22,12.00
2010,02,20,16,23,11.90
2010,02,20,16,24,11.90
2010,02,20,16,25,11.90
2010,02,20,16,26,11.90
2010,02,20,16,27,11.80
2010,02,20,16,28,11.80
2010,02,20,16,29,11.80
2010,02,20,16,30,11.80
2010,02,20,16,31,11.80
2010,02,20,16,32,11.80
2010,02,20,16,33,11.80
2010,02,20,16,34,11.70
2010,02,20,16,35,11.70
2010,02,20,16,36,11.60
2010,02,20,16,37,11.60
2010,02,20,16,38,11.60
2010,02,20,16,39,11.60
2010,02,20,16,40,11.60
2010,02,20,16,41,11.60
2010,02,20,16,42,11.60
2010,02,20,16,43,11.60
2010,02,20,16,44,11.50
2010,02,20,16,45,11.40
2010,02,20,16,46,11.40
2010,02,20,16,47,11.40
2010,02,20,16,48,11.30
2010,02,20,16,49,11.30
2010,02,20,16,50,11.30
2010,02,20,16,51,11.20
2010,02,20,16,52,11.20
2010,02,20,16,53,11.20
2010,02,20,16,54,11.20
2010,02,20,16,55,11.20
2010,02,20,16,56,11.10
2010,02,20,16,57,11.10
2010,02,20,16,58,11.10
2010,02,20,16,59,11.10
2010,02,20,17,00,11.10
2010,02,20,17,01,11.10
2010,02,20,17,02,11.10
2010,02,20,17,03,11.10
2010,02,20,17,04,11.10
2010,02,20,17,05,11.10
2010,02,20,17,06,11.10
2010,02,20,17,07,11.10
2010,02,20,17,08,11.10
2010,02,20,17,09,11.10
2010,02,20,17,10,11.10
2010,02,20,17,11,11.00
2010,02,20,17,12,10.90
2010,02,20,17,13,10.90
2010,02,20,17,14,10.90
2010,02,20,17,15,10.90
2010,02,20,17,16,10.90
2010,02,20,17,17,10.80
2010,02,20,17,18,10.80
2010,02,20,17,19,10.70
2010,02,20,17,20,10.70
2010,02,20,17,21,10.70
2010,02,20,17,22,10.60
2010,02,20,17,23,10.60
2010,02,20,17,24,10.60
2010,02,20,17,25,10.60
2010,02,20,17,26,10.60
2010,02,20,17,27,10.50
2010,02,20,17,28,10.40
2010,02,20,17,29,10.40
2010,02,20,17,30,10.40
2010,02,20,17,31,10.40
2010,02,20,17,32,10.40
2010,02,20,17,33,10.40
2010,02,20,17,34,10.30
2010,02,20,17,35,10.30
2010,02,20,17,36,10.30
2010,02,20,17,37,10.30
2010,02,20,17,38,10.30
2010,02,20,17,39,10.20
2010,02,20,17,40,10.20
2010,02,20,17,41,10.20
2010,02,20,17,42,10.10
2010,02,20,17,43,10.10
2010,02,20,17,44,10.10
2010,02,20,17,45,10.10
2010,02,20,17,46,10.10
2010,02,20,17,47,10.00